User: anonymous   Login
Location: Unspecified
(0.0000°N, 0.0000°E)
Time: 00:41:13
(UTC+00:00)
Language:

POPSAT HIP 1 - Orbit

View from above orbital plane
View from above orbital plane
View from above satellite
View from above satellite

Ground track
Ground track

The orbit data is extracted from the following two-line orbital elements,

1 40028U 14033U   17206.49956531 +.00000052 +00000-0 +11738-4 0  9994
2 40028 097.9145 117.8156 0013911 171.7720 188.3705 14.88309627168173
Epoch (UTC): 25 July 2017 11:59:22
Eccentricity: 0.0013911
inclination: 97.9145°
perigee height: 593 km
apogee height: 613 km
right ascension of ascending node: 117.8156°
argument of perigee: 171.7720°
revolutions per day: 14.88309627
mean anomaly at epoch: 188.3705°
orbit number at epoch: 16817

The dashed part of the orbit path shows where the satellite is in the earth's shadow,  

DLR